Regional Weather Roundup
Issued by NWS

Home | Current Version | Previous Version | Text Only | Print | Product List | Glossary Off
Versions: 1 2 3 4 5 6 7 8 9 10 11 12 13 14 15 16 17 18 19 20 21 22 23 24 25 26 27 28 29 30 31 32 33 34 35 36 37 38 39 40 41 42 43 44 45 46 47 48 49 50

000
ASUS43 KLSX 261657
RWRMO

WEATHER SUMMARY FOR MISSOURI
NATIONAL WEATHER SERVICE SPRINGFIELD MO
1200 PM CDT WED JUL 26 2017

NOTE: "FAIR" INDICATES FEW OR NO CLOUDS BELOW 12,000 FEET WITH NO
       SIGNIFICANT WEATHER AND/OR OBSTRUCTIONS TO VISIBILITY.
       CURRENT SKY AND/OR WEATHER CONDITIONS ARE NOT AVAILABLE FOR
       CHILLICOTHE AND FARMINGTON.

MOZ001>031-035>038-043-044-053-054-261800-
...NORTHERN AND WESTERN MISSOURI...

CITY           SKY/WX    TMP DP  RH WIND       PRES   REMARKS
KANSAS CTY INT LGT RAIN  78  76  93 S8        30.03F
LEE`S SUMMIT   CLOUDY    81  76  84 SW5       30.06F
ST JOSEPH      CLOUDY    79  77  94 S9        29.98F
CHILLICOTHE      N/A     82  76  81 VRB3      30.03F

$$
MOZ066>068-077>081-088>096-101>105-261800-
...SOUTHWEST MISSOURI...

CITY           SKY/WX    TMP DP  RH WIND       PRES   REMARKS
SPRINGFIELD    CLOUDY    90  73  57 S10       30.09F HX  98
JOPLIN         PTSUNNY   94  73  50 SW14G22   30.06F HX 103
BRANSON        CLOUDY    90  72  55 SW7       30.12F HX  96

$$
MOZ032>034-039>042-045>050-055>058-069>072-261800-
...CENTRAL MISSOURI...

CITY           SKY/WX    TMP DP  RH WIND       PRES   REMARKS
COLUMBIA       NOT AVBL
JEFFERSON CITY CLOUDY    89  74  60 SW9       30.05S HX  98
ROLLA          CLOUDY    88  74  63 SW8       30.10S HX  96
SEDALIA        CLOUDY    87  78  74 SW9       30.07S HX 100
WARRENSBURG    CLOUDY    81  72  74 SW7       30.06R

$$
MOZ051-052-059>065-261800-
...EAST CENTRAL MISSOURI...

CITY           SKY/WX    TMP DP  RH WIND       PRES   REMARKS
ST LOUIS INTL  CLOUDY    96  74  48 W10       30.05S HX 107

$$
MOZ072>076-082>087-097>100-106>115-261800-
...SOUTH CENTRAL AND SOUTHEAST MISSOURI...

CITY           SKY/WX    TMP DP  RH WIND       PRES   REMARKS
CAPE GIRARDEAU SUNNY     91  79  67 SW6       30.06S HX 107
POPLAR BLUFF   SUNNY     90  80  72 S6        30.06F HX 107
WEST PLAINS    CLOUDY    90  71  53 W6        30.12F HX  96

$$



USA.gov is the U.S. government's official web portal to all federal, state and local government web resources and services.